Waarnemingen

Advertentie
Mijn weer
Kolmaardenstroemsfors, Zweden (2558): temperatuur & dauwpunt: 18.02.2018 22:00:00 - 24.02.2018 22:00:00 (CET)Kolmaardenstroemsfors, Zweden (2558): windsnelheid & windstoten: 18.02.2018 22:00:00 - 24.02.2018 22:00:00 (CET)Kolmaardenstroemsfors, Zweden (2558): windrichting: 18.02.2018 22:00:00 - 24.02.2018 22:00:00 (CET)Kolmaardenstroemsfors, Zweden (2558): luchtdruk: 18.02.2018 22:00:00 - 24.02.2018 22:00:00 (CET)Kolmaardenstroemsfors, Zweden (2558): zicht: 18.02.2018 22:00:00 - 24.02.2018 22:00:00 (CET)Kolmaardenstroemsfors, Zweden (2558): neerslag: 18.02.2018 22:00:00 - 24.02.2018 22:00:00 (CET)
Datum & Tijd tt [°C] td [°C] ff [km/u] ff [kn] fx [km/u] fx [kn] dd ppp [hPa] vv [km] rr [mm]
24.02.2018 22:00:00 -7,9 -10,1 8 5 16 9 NNO 1038,4 50 0,0
24.02.2018 21:00:00 -8,2 -10,3 6 4 14 8 NNO 1038,5 50 0,0
24.02.2018 20:00:00 -8,2 -10,6 8 4 14 8 NNO 1038,5 50 0,0
24.02.2018 19:00:00 -8,2 -10,9 8 4 14 8 NNO 1038,5 50 0,0
24.02.2018 18:00:00 -8,0 -11,0 6 3 20 11 N 1038,5 50 0,0
24.02.2018 17:00:00 -7,1 -10,9 7 4 20 11 NNO 1038,3 50 0,0
24.02.2018 16:00:00 -6,0 -10,9 8 4 20 11 N 1038,5 50 0,0
24.02.2018 15:00:00 -5,8 -11,1 8 4 21 12 N 1038,6 50 0,0
24.02.2018 14:00:00 -5,5 -11,6 10 5 23 12 NO 1038,6 40 0,0
24.02.2018 13:00:00 -5,6 -11,7 10 5 24 13 NNO 1038,8 50 0,0
24.02.2018 12:00:00 -5,7 -12,2 9 5 24 13 NO 1038,9 37 0,0
24.02.2018 11:00:00 -6,7 -12,2 10 5 24 13 NNO 1039,0 45 0,0
24.02.2018 10:00:00 -8,3 -11,3 9 5 21 11 NNO 1039,0 48 0,0
24.02.2018 09:00:00 -9,4 -11,3 11 6 20 11 NO 1038,8 48 0,0
24.02.2018 08:00:00 -11,5 -12,8 10 6 20 11 N 1038,6 42 0,0
24.02.2018 07:00:00 -10,9 -12,1 10 6 23 12 N 1038,2 46 0,0
24.02.2018 06:00:00 -10,2 -11,5 11 6 23 12 NNO 1037,7 48 0,0
24.02.2018 05:00:00 -9,9 -11,1 11 6 22 12 NNO 1037,0 49 0,0
24.02.2018 04:00:00 -9,6 -10,7 11 6 22 12 N 1036,5 41 0,0
24.02.2018 03:00:00 -9,5 -10,4 11 6 22 12 N 1036,1 34 0,0
24.02.2018 02:00:00 -9,1 -10,0 12 6 22 12 N 1035,6 44 0,0
24.02.2018 01:00:00 -8,8 -10,3 10 6 20 11 N 1035,3 50 0,0
24.02.2018 00:00:00 -8,5 -9,6 10 5 24 13 NNO 1034,8 50 0,0
23.02.2018 23:00:00 -7,7 -9,5 10 5 24 13 NNO 1034,2 50 0,0
23.02.2018 22:00:00 -7,0 -8,1 9 5 22 12 NNO 1033,6 50 0,0
23.02.2018 21:00:00 -5,9 -7,7 9 5 29 16 NO 1032,7 44 0,0
23.02.2018 20:00:00 -5,3 -7,7 11 6 29 16 NO 1032,0 50 0,0
23.02.2018 19:00:00 -5,2 -7,6 8 4 25 14 N 1031,3 50 0,0
23.02.2018 18:00:00 -4,8 -7,7 8 4 27 15 NNO 1030,7 50 0,0
23.02.2018 17:00:00 -4,3 -8,2 10 5 27 15 NNO 1029,8 10 0,0
23.02.2018 16:00:00 -3,9 -8,4 9 5 26 14 N 1029,2 50 0,0
23.02.2018 15:00:00 - - - - - - - - - -
23.02.2018 14:00:00 -3,1 -6,9 10 6 27 14 NNO 1028,4 24 0,0
23.02.2018 13:00:00 -3,1 -6,9 14 8 27 15 NNO 1028,0 20 0,0
23.02.2018 12:00:00 -3,0 -5,3 9 5 28 15 NNO 1027,7 25 0,0
23.02.2018 11:00:00 -3,5 -5,0 9 5 24 13 NNO 1027,3 21 0,0
23.02.2018 10:00:00 -4,0 -4,8 9 5 20 11 N 1026,7 6 0,0
23.02.2018 09:00:00 -4,2 -5,0 10 6 22 12 NNW 1026,2 8 0,0
23.02.2018 08:00:00 -4,1 -4,8 9 5 22 12 NNW 1026,0 4,9 0,1
23.02.2018 07:00:00 -3,9 -4,6 10 6 20 11 NW 1025,7 6 0,0
23.02.2018 06:00:00 -3,8 -4,3 6 3 19 10 NW 1025,5 1,6 0,1
23.02.2018 05:00:00 -3,8 -4,3 8 5 19 10 WNW 1025,4 9 0,0
23.02.2018 04:00:00 -3,7 -4,2 6 3 19 10 WNW 1025,4 8 0,0
23.02.2018 03:00:00 -3,7 -4,2 5 3 10 5 W 1025,9 1,6 0,0
23.02.2018 02:00:00 -3,8 -4,3 4 2 16 9 W 1026,1 5 0,0
23.02.2018 01:00:00 -3,9 -4,6 3 2 16 9 W 1026,4 7 0,0
23.02.2018 00:00:00 -3,9 -4,7 6 3 11 6 W 1026,9 8 0,0
22.02.2018 23:00:00 -4,1 -5,2 4 2 8 5 WZW 1027,3 9 0,0
22.02.2018 22:00:00 -4,1 -5,6 3 2 12 7 WZW 1027,5 15 0,0
22.02.2018 21:00:00 -4,1 -5,8 5 3 12 7 WZW 1027,6 14 0,0
22.02.2018 20:00:00 -4,2 -6,3 4 2 11 6 WZW 1027,9 14 0,0
22.02.2018 19:00:00 -4,4 -7,0 5 3 10 5 ZW 1028,1 14 0,0
22.02.2018 18:00:00 -4,4 -7,3 4 2 12 6 ZZW 1028,3 15 0,0
22.02.2018 17:00:00 -4,2 -7,1 5 3 12 6 ZW 1028,5 16 0,0
22.02.2018 16:00:00 -3,7 -7,0 4 2 13 7 ZW 1028,6 17 0,0
22.02.2018 15:00:00 -3,3 -7,1 3 2 15 8 W 1028,7 32 0,0
22.02.2018 14:00:00 -3,3 -8,4 5 3 15 8 W 1029,2 43 0,0
22.02.2018 13:00:00 -3,4 -8,3 3 2 14 8 WZW 1029,7 26 0,0
22.02.2018 12:00:00 -3,7 -9,3 7 4 14 8 W 1029,8 31 0,0
22.02.2018 11:00:00 -4,2 -8,9 5 3 12 6 WNW 1030,0 35 0,0
22.02.2018 10:00:00 -5,0 -8,7 5 3 9 5 WNW 1030,1 30 0,0
22.02.2018 09:00:00 -5,8 -8,9 3 2 8 4 WNW 1030,1 23 0,0
22.02.2018 08:00:00 -6,6 -9,3 4 2 9 5 WNW 1030,0 39 0,0
22.02.2018 07:00:00 -7,2 -9,6 3 2 10 6 WNW 1029,8 44 0,0
22.02.2018 06:00:00 -7,7 -9,8 6 3 10 6 NW 1029,8 35 0,0
22.02.2018 05:00:00 -7,3 -9,5 6 3 8 4 NW 1029,6 38 0,0
22.02.2018 04:00:00 -7,3 -9,4 3 2 13 7 NNW 1029,6 32 0,0
22.02.2018 03:00:00 -7,4 -9,3 4 2 15 8 NNO 1029,6 40 0,0
22.02.2018 02:00:00 -7,6 -9,4 7 4 15 8 N 1029,7 33 0,0
22.02.2018 01:00:00 -8,4 -9,7 7 4 15 8 NNO 1029,6 32 0,0
22.02.2018 00:00:00 -9,5 -10,7 7 4 13 7 NNO 1029,5 22 0,0
21.02.2018 23:00:00 -8,9 -10,2 8 4 13 7 NO 1029,4 30 0,0
21.02.2018 22:00:00 -8,8 -9,7 7 4 13 7 NO 1029,3 19 0,0
21.02.2018 21:00:00 -9,3 -10,5 6 4 13 7 NNO 1029,0 17 0,0
21.02.2018 20:00:00 -8,8 -10,3 7 4 13 7 NNO 1028,6 22 0,0
21.02.2018 19:00:00 -7,8 -9,9 7 4 11 6 N 1028,3 29 0,0
21.02.2018 18:00:00 -7,9 -10,3 5 3 9 5 N 1027,9 35 0,0
21.02.2018 17:00:00 -7,2 -10,2 4 2 12 7 NNO 1027,6 35 0,0
21.02.2018 16:00:00 -5,3 -9,2 4 2 13 7 NO 1027,0 39 0,0
21.02.2018 15:00:00 -4,7 -9,2 6 3 13 7 NNO 1026,9 10 0,0
21.02.2018 14:00:00 -4,8 -8,4 5 3 14 8 O 1027,1 2,9 0,0
21.02.2018 13:00:00 -5,0 -8,1 6 3 14 8 N 1027,2 2,1 0,0
21.02.2018 12:00:00 -4,8 -8,5 3 1 12 7 WNW 1027,0 31 0,0
21.02.2018 11:00:00 -4,9 -7,8 3 1 12 7 O 1027,1 8 0,1
21.02.2018 10:00:00 -6,3 -7,8 3 2 10 5 NNO 1027,3 4,0 0,0
21.02.2018 09:00:00 -6,8 -8,3 4 2 10 5 N 1027,1 2,0 0,0
21.02.2018 08:00:00 -7,0 -8,8 4 2 9 5 N 1026,7 7 0,0
21.02.2018 07:00:00 -7,3 -8,9 4 2 9 5 N 1026,5 13 0,0
21.02.2018 06:00:00 -7,2 -8,9 4 2 9 5 N 1026,6 16 0,0
21.02.2018 05:00:00 -7,4 -8,8 4 2 8 5 N 1026,8 15 0,0
21.02.2018 04:00:00 -7,5 -8,9 4 2 9 5 NW 1027,2 14 0,0
21.02.2018 03:00:00 -7,1 -8,6 4 2 9 5 NNO 1027,3 17 0,0
21.02.2018 02:00:00 -6,9 -8,6 5 3 9 5 N 1027,6 17 0,0
21.02.2018 01:00:00 -6,7 -8,4 4 2 8 4 NNO 1027,6 18 0,0
21.02.2018 00:00:00 -6,4 -8,4 3 2 14 8 N 1028,0 21 0,0
20.02.2018 23:00:00 -6,1 -8,5 3 2 14 8 NNW 1027,9 20 0,0
20.02.2018 22:00:00 -5,9 -8,3 6 4 12 7 N 1027,8 23 0,0
20.02.2018 21:00:00 -5,8 -8,9 5 3 9 5 N 1027,8 33 0,0
20.02.2018 20:00:00 -5,6 -9,2 4 2 7 4 N 1028,0 35 0,0
20.02.2018 19:00:00 -5,5 -9,2 3 2 10 5 N 1028,0 28 0,0
20.02.2018 18:00:00 -5,3 -9,2 4 2 11 6 NNO 1027,8 30 0,0
20.02.2018 17:00:00 -5,0 -9,1 4 2 12 7 NO 1027,6 46 0,0
20.02.2018 16:00:00 -5,3 -9,6 4 2 16 8 N 1027,8 50 0,0
20.02.2018 15:00:00 -4,5 -9,5 8 4 16 8 N 1027,9 35 0,0
20.02.2018 14:00:00 -4,5 -9,1 6 3 15 8 N 1028,1 32 0,0
20.02.2018 13:00:00 -4,4 -8,9 6 4 15 8 NW 1028,3 32 0,0
20.02.2018 12:00:00 -4,4 -8,9 5 3 16 8 N 1028,5 32 0,0
20.02.2018 11:00:00 -4,9 -7,8 6 3 16 8 N 1028,4 10 0,1
20.02.2018 10:00:00 -5,4 -7,4 6 3 16 8 N 1028,5 10 0,0
20.02.2018 09:00:00 -6,0 -7,2 6 3 14 8 N 1028,5 8 0,0
20.02.2018 08:00:00 -6,3 -7,4 7 4 14 8 N 1028,2 9 0,0
20.02.2018 07:00:00 -6,2 -7,1 7 4 14 8 NNO 1028,1 6 0,0
20.02.2018 06:00:00 -6,1 -7,0 6 3 14 7 N 1028,1 6 0,0
20.02.2018 05:00:00 -6,2 -7,1 5 3 18 10 NNO 1028,1 4,2 0,0
20.02.2018 04:00:00 -6,1 -7,3 6 3 18 10 NNO 1028,1 4,5 0,0
20.02.2018 03:00:00 -6,0 -7,2 6 4 17 9 NNO 1028,3 4,6 0,0
20.02.2018 02:00:00 -5,7 -6,9 6 4 17 9 NO 1028,3 4,2 0,0
20.02.2018 01:00:00 -5,7 -6,9 6 4 16 9 NNO 1028,3 3,8 0,0
20.02.2018 00:00:00 -5,5 -7,2 8 4 22 12 NO 1028,3 8 0,0
19.02.2018 23:00:00 -5,4 -7,2 7 4 26 14 NO 1028,0 8 0,0
19.02.2018 22:00:00 -5,1 -7,4 9 5 29 16 NO 1027,7 7 0,0
19.02.2018 21:00:00 -4,9 -7,5 11 6 31 17 NO 1027,4 10 0,0
19.02.2018 20:00:00 -4,5 -6,9 12 7 31 17 NO 1027,4 11 0,0
19.02.2018 19:00:00 -4,4 -6,8 11 6 30 16 NO 1026,9 9 0,0
19.02.2018 18:00:00 -3,9 -5,4 11 6 32 17 NNO 1026,5 7 0,0
19.02.2018 17:00:00 -3,4 -4,8 12 6 32 17 NO 1025,9 7 0,0
19.02.2018 16:00:00 -2,7 -4,3 12 6 30 16 NO 1025,4 9 0,0
19.02.2018 15:00:00 -2,1 -3,5 11 6 30 16 NO 1024,8 12 0,0
19.02.2018 14:00:00 -1,7 -3,0 10 5 28 15 NO 1024,3 14 0,0
19.02.2018 13:00:00 -1,4 -2,1 12 7 28 15 NO 1023,8 4,5 0,1
19.02.2018 12:00:00 -1,1 -1,7 11 6 24 13 NO 1023,5 12 0,0
19.02.2018 11:00:00 -0,9 -1,2 10 6 24 13 NO 1023,1 12 0,0
19.02.2018 10:00:00 -1,0 -1,3 9 5 21 12 NO 1022,6 3,2 0,0
19.02.2018 09:00:00 -1,8 -2,1 7 4 19 11 NO 1022,3 0,6 0,0
19.02.2018 08:00:00 -2,2 -2,6 6 3 12 7 NO 1021,7 2,6 0,0
19.02.2018 07:00:00 -2,3 -2,6 5 3 11 6 O 1021,3 1,3 0,0
19.02.2018 06:00:00 -2,2 -2,5 4 2 10 5 ONO 1020,9 1,6 0,0
19.02.2018 05:00:00 -2,2 -2,5 4 2 10 5 O 1020,7 1,2 0,0
19.02.2018 04:00:00 -2,0 -2,3 4 2 10 5 OZO 1020,7 2,2 0,0
19.02.2018 03:00:00 -2,1 -2,4 4 2 7 4 O 1020,9 0,7 0,0
19.02.2018 02:00:00 -1,9 -2,2 4 2 8 5 OZO 1021,2 2,1 0,0
19.02.2018 01:00:00 -1,9 -2,2 4 2 9 5 ZZO 1021,3 1,6 0,0
19.02.2018 00:00:00 -1,7 -2,0 5 3 11 6 Z 1021,5 3,6 0,0
18.02.2018 23:00:00 -1,5 -1,9 5 3 11 6 ZZW 1021,7 3,9 0,0
18.02.2018 22:00:00 -1,5 -2,1 6 4 11 6 ZZW 1021,9 7 0,0

tt = temperatuur
td = dauwpunt
ff = windsnelheid
fx = windstoten
dd = windrichting
ppp = luchtdruk
vv = zicht
rr = neerslag

Weerstations in de omgeving